Location: Fishcreek Rd Observing Site
(41.1865°N, 81.4271°W)
Time: 08:00:08
(UTC-05:00)

ISS - Visible Passes

Search period start: 16 January 2018 00:00
Search period end: 26 January 2018 00:00
Orbit: 402 x 406 km, 51.6° (Epoch: 16 January)

Date Brightness Start Highest point End Pass type
(mag) Time Alt. Az. Time Alt. Az. Time Alt. Az.
16 Jan -2.6 06:20:29 27° SW 06:20:36 27° SW 06:23:25 10° SSE visible
17 Jan -1.3 05:30:33 18° SSE 05:30:33 18° SSE 05:31:30 10° SE visible
23 Jan -0.6 20:02:34 10° SW 20:02:47 12° SW 20:02:47 12° SW visible
24 Jan -2.8 19:10:22 10° SSW 19:12:53 33° SSE 19:12:53 33° SSE visible
25 Jan -2.1 18:18:39 10° S 18:21:01 19° SE 18:22:54 12° E visible
25 Jan -1.4 19:54:04 10° WSW 19:55:34 24° W 19:55:34 24° W visible
